EDT,Max TemperatureF,Mean TemperatureF,Min TemperatureF,Max Dew PointF,MeanDew PointF,Min DewpointF,Max Humidity, Mean Humidity, Min Humidity, Max Sea Level PressureIn, Mean Sea Level PressureIn, Min Sea Level PressureIn, Max VisibilityMiles, Mean VisibilityMiles, Min VisibilityMiles, Max Wind SpeedMPH, Mean Wind SpeedMPH, Max Gust SpeedMPH,PrecipitationIn, CloudCover, Events, WindDirDegrees
2012-3-1,80,72,60,64,55,36,100,67,20,29.78,29.73,29.67,10,10,10,24,11,34,0.00,2,,245
2012-3-2,59,50,42,52,47,41,100,83,63,30.07,29.94,29.77,10,10,10,13,5,16,0.00,4,,87
2012-3-3,64,60,55,64,59,48,100,88,63,29.74,29.66,29.58,10,8,2,17,8,24,0.00,6,,227
2012-3-4,51,46,42,48,43,32,100,88,57,29.85,29.73,29.68,10,9,5,16,3,20,0.00,7,,114
2012-3-5,51,42,32,37,32,25,81,71,54,30.34,30.07,29.95,10,10,10,20,6,38,0.00,4,,243
2012-3-6,51,38,26,34,28,23,100,70,35,30.71,30.63,30.51,10,10,10,9,2,,0.00,0,,144
2012-3-7,69,50,30,50,42,30,100,71,43,30.69,30.59,30.48,10,10,10,16,5,23,0.00,1,,192
2012-3-8,73,60,46,57,51,46,100,71,41,30.47,30.33,30.16,10,10,10,20,7,26,0.00,2,,197
2012-3-9,64,52,39,61,50,39,100,85,66,30.28,30.15,30.06,10,8,1,14,8,24,0.00,5,,146
2012-3-10,51,43,35,37,30,21,100,65,30,30.55,30.47,30.32,10,10,7,12,3,,0.00,1,,16
2012-3-11,64,46,28,37,32,28,100,66,30,30.62,30.53,30.46,10,10,10,9,1,,0.00,0,,187
2012-3-12,73,55,37,50,44,36,100,68,41,30.46,30.37,30.25,10,10,10,15,4,22,0.00,0,,201
2012-3-13,77,67,57,61,58,52,100,77,57,30.25,30.18,30.08,10,10,7,13,7,21,0.00,4,,212
2012-3-14,84,68,51,63,55,43,100,70,23,30.21,30.15,30.10,10,8,0,7,3,,0.00,1,,226
2012-3-15,86,70,53,61,56,52,100,68,31,30.26,30.22,30.15,10,10,7,12,5,20,0.00,0,,206
2012-3-16,82,72,62,63,60,55,100,68,48,30.20,30.15,30.09,10,10,10,17,7,21,0.00,3,,220
2012-3-17,75,66,57,61,59,57,100,81,57,30.28,30.21,30.15,10,10,4,10,3,,0.00,5,,61
2012-3-18,73,63,53,61,57,54,100,88,65,30.34,30.29,30.22,10,5,0,10,5,,0.00,7,,59
2012-3-19,80,66,53,63,59,54,100,82,51,30.23,30.19,30.12,10,8,0,10,1,,0.00,5,,98
2012-3-20,84,68,53,66,61,54,100,82,48,30.25,30.20,30.15,10,8,0,15,1,31,0.00,3,,123
2012-3-21,78,70,62,66,64,63,100,90,61,30.31,30.26,30.22,10,10,5,10,3,,0.00,5,,130
2012-3-22,82,71,60,66,63,59,100,79,45,30.29,30.23,30.13,10,10,10,10,4,17,0.00,3,,194
2012-3-23,86,73,60,66,63,61,100,81,45,30.15,30.08,29.97,10,8,0,13,4,,0.00,2,,203
2012-3-24,69,66,62,70,65,63,100,96,83,29.98,29.92,29.83,10,9,2,8,4,,0.00,3,,179
2012-3-25,69,63,57,64,61,57,100,97,78,29.81,29.74,29.70,10,8,0,10,2,17,0.00,6,,356
2012-3-26,73,65,57,57,51,37,100,70,29,29.88,29.81,29.74,10,8,4,14,5,24,0.00,2,,345
2012-3-27,57,48,39,27,22,19,49,36,26,30.35,30.28,30.15,10,10,10,12,6,17,0.00,0,,355
2012-3-28,80,60,41,57,48,37,100,67,45,30.28,30.03,29.78,10,10,10,18,8,26,0.00,0,,213
2012-3-29,80,71,62,61,52,41,83,55,24,29.91,29.81,29.74,10,10,10,15,7,23,0.00,0,,278
2012-3-30,71,56,41,52,45,41,100,73,41,30.10,30.04,29.94,10,10,10,9,2,9,0.00,1,,111
2012-3-31,77,65,53,64,60,52,100,87,61,29.87,29.77,29.67,10,10,2,17,4,23,0.00,4,,242